CW3363 Weather Reports


Display with metric or nautical units.
time (UTC)temp
F
wind
direction
speed
MPH
gust
MPH
rain 1hr
in
rain 24hr
in
rain mn
in
humidity
%
barometer
mb
20260505021833 75 159 6.0 12.0 0.00 0.00 0.00 77 1011.2
20260505021338 75 134 6.0 12.0 0.00 0.00 0.00 76 1011.2
20260505020822 75 201 8.0 14.0 0.00 0.00 0.00 76 1011.2
20260505020327 75 191 7.0 17.0 0.00 0.00 0.00 76 1011.1
20260505015835 75 147 8.0 17.0 0.00 0.00 0.00 76 1011.1
20260505015321 75 202 8.0 15.0 0.00 0.00 0.00 75 1011.1
20260505014826 75 208 8.0 15.0 0.00 0.00 0.00 75 1010.8
20260505014334 75 155 4.0 12.0 0.00 0.00 0.00 75 1010.8
20260505013821 75 135 6.0 13.0 0.00 0.00 0.00 75 1010.8
20260505013329 76 200 7.0 13.0 0.00 0.00 0.00 75 1010.7
20260505012855 76 185 5.0 13.0 0.00 0.00 0.00 74 1010.7
20260505012319 76 161 6.0 12.0 0.00 0.00 0.00 74 1010.7
20260505011828 76 143 8.0 12.0 0.00 0.00 0.00 74 1010.7
20260505011335 76 145 6.0 11.0 0.00 0.00 0.00 74 1010.7
20260505010820 76 137 6.0 12.0 0.00 0.00 0.00 74 1010.7
20260505010348 76 206 5.0 14.0 0.00 0.00 0.00 73 1010.7
20260505005820 76 189 5.0 13.0 0.00 0.00 0.00 73 1010.7
20260505005328 76 182 8.0 16.0 0.00 0.00 0.00 73 1010.7
20260505004857 76 191 7.0 16.0 0.00 0.00 0.00 73 1010.6
20260505004323 76 163 4.0 12.0 0.00 0.00 0.00 73 1010.6
20260505003829 76 176 5.0 12.0 0.00 0.00 0.00 73 1010.6
20260505003335 77 165 5.0 12.0 0.00 0.00 0.00 72 1010.7
20260505002841 77 140 7.0 12.0 0.00 0.00 0.00 72 1010.7
20260505002327 77 168 4.0 9.0 0.00 0.00 0.00 72 1010.7
20260505001834 77 189 3.0 11.0 0.00 0.00 0.00 72 1010.8
20260505001343 77 197 6.0 15.0 0.00 0.00 0.00 71 1010.8
20260505000829 77 143 7.0 11.0 0.00 0.00 0.00 71 1010.8
20260505000336 77 178 7.0 14.0 0.00 0.00 0.00 70 1010.7
20260504235819 78 185 10.0 14.0 0.00 0.00 0.00 70 1010.7
20260504235332 78 141 8.0 14.0 0.00 0.00 0.00 70 1010.7
20260504234839 78 147 8.0 14.0 0.00 0.00 0.00 70 1011.0
20260504234346 78 162 8.0 13.0 0.00 0.00 0.00 70 1011.0
20260504233830 78 134 8.0 13.0 0.00 0.00 0.00 69 1011.0
20260504233334 78 179 6.0 13.0 0.00 0.00 0.00 70 1011.1
20260504232838 78 196 6.0 13.0 0.00 0.00 0.00 69 1011.1
20260504232322 78 191 4.0 13.0 0.00 0.00 0.00 69 1011.1
20260504231845 78 162 8.0 13.0 0.00 0.00 0.00 69 1011.2
20260504231329 78 181 7.0 13.0 0.00 0.00 0.00 69 1011.2
20260504230836 79 203 8.0 12.0 0.00 0.00 0.00 68 1011.2
20260504230400 79 145 6.0 15.0 0.00 0.00 0.00 68 1011.2
20260504225840 79 202 8.0 15.0 0.00 0.00 0.00 68 1011.2
20260504225325 79 221 7.0 15.0 0.00 0.00 0.00 68 1011.2
20260504224829 79 166 9.0 15.0 0.00 0.00 0.00 67 1011.3
20260504224331 79 184 7.0 15.0 0.00 0.00 0.00 67 1011.3
20260504223834 79 135 7.0 12.0 0.00 0.00 0.00 67 1011.3
20260504223322 79 188 6.0 14.0 0.00 0.00 0.00 66 1011.5
20260504222824 80 153 6.0 14.0 0.00 0.00 0.00 66 1011.5
20260504222327 80 163 7.0 15.0 0.00 0.00 0.00 65 1011.5
20260504221830 80 182 10.0 15.0 0.00 0.00 0.00 64 1011.7
20260504221334 80 194 6.0 13.0 0.00 0.00 0.00 64 1011.7
20260504220858 80 175 5.0 13.0 0.00 0.00 0.00 63 1011.7
20260504220323 80 154 6.0 13.0 0.00 0.00 0.00 63 1011.7
20260504215826 80 147 7.0 15.0 0.00 0.00 0.00 62 1011.7
20260504215328 81 203 10.0 15.0 0.00 0.00 0.00 61 1011.7
20260504214831 81 185 6.0 12.0 0.00 0.00 0.00 61 1011.8
20260504214334 81 214 5.0 13.0 0.00 0.00 0.00 61 1011.8
20260504213837 81 203 6.0 13.0 0.00 0.00 0.00 60 1011.8
20260504213325 81 137 7.0 11.0 0.00 0.00 0.00 60 1012.1
20260504212834 81 201 6.0 14.0 0.00 0.00 0.00 60 1012.1
20260504212338 82 161 4.0 14.0 0.00 0.00 0.00 59 1012.1
20260504211840 82 201 8.0 12.0 0.00 0.00 0.00 58 1012.2
20260504211324 82 178 5.0 11.0 0.00 0.00 0.00 59 1012.2
20260504210849 82 167 5.0 14.0 0.00 0.00 0.00 59 1012.2
20260504210334 82 157 8.0 14.0 0.00 0.00 0.00 58 1012.3
20260504205856 83 175 6.0 12.0 0.00 0.00 0.00 58 1012.3
20260504205341 84 124 5.0 11.0 0.00 0.00 0.00 56 1012.3
20260504204826 83 239 2.0 10.0 0.00 0.00 0.00 57 1012.8
20260504204330 82 197 3.0 10.0 0.00 0.00 0.00 58 1012.7
20260504203835 82 215 5.0 11.0 0.00 0.00 0.00 58 1012.7
20260504203359 83 173 7.0 11.0 0.00 0.00 0.00 57 1012.9
20260504202825 83 165 3.0 9.0 0.00 0.00 0.00 56 1012.9
20260504202351 83 175 6.0 9.0 0.00 0.00 0.00 57 1012.9
20260504201854 83 246 3.0 8.0 0.00 0.00 0.00 57 1013.3
20260504201339 82 176 4.0 10.0 0.00 0.00 0.00 58 1013.3
20260504200845 82 184 5.0 12.0 0.00 0.00 0.00 57 1013.3
20260504200332 82 202 6.0 12.0 0.00 0.00 0.00 57 1013.4
20260504195838 83 231 6.0 10.0 0.00 0.00 0.00 58 1013.4
20260504195324 83 176 3.0 9.0 0.00 0.00 0.00 56 1013.4
20260504194852 84 178 3.0 9.0 0.00 0.00 0.00 56 1013.6
20260504194341 82 208 4.0 11.0 0.00 0.00 0.00 57 1013.6
20260504193845 82 141 5.0 11.0 0.00 0.00 0.00 60 1013.6
20260504193329 82 237 6.0 10.0 0.00 0.00 0.00 57 1013.8
20260504192855 82 211 4.0 12.0 0.00 0.00 0.00 57 1013.8
20260504192339 82 177 3.0 12.0 0.00 0.00 0.00 58 1013.8
20260504191824 82 156 5.0 13.0 0.00 0.00 0.00 58 1013.9
20260504191334 82 186 6.0 13.0 0.00 0.00 0.00 56 1013.9
20260504190820 82 179 4.0 15.0 0.00 0.00 0.00 58 1013.9
20260504190327 81 188 8.0 15.0 0.00 0.00 0.00 59 1014.3
20260504185831 79 182 7.0 13.0 0.00 0.00 0.00 61 1014.3
20260504185339 80 141 9.0 12.0 0.00 0.00 0.00 59 1014.3
20260504184826 81 131 6.0 13.0 0.00 0.00 0.00 58 1014.3
20260504184353 81 142 5.0 13.0 0.00 0.00 0.00 57 1014.3
20260504183841 81 144 7.0 13.0 0.00 0.00 0.00 58 1014.3
20260504183327 81 198 7.0 13.0 0.00 0.00 0.00 58 1014.3
20260504182832 81 145 6.0 14.0 0.00 0.00 0.00 59 1014.3
20260504182341 81 195 8.0 14.0 0.00 0.00 0.00 57 1014.3
20260504181829 80 180 4.0 14.0 0.00 0.00 0.00 60 1014.7
20260504181340 80 142 9.0 16.0 0.00 0.00 0.00 60 1014.7
20260504180827 81 175 6.0 12.0 0.00 0.00 0.00 59 1014.7
20260504180351 81 166 6.0 11.0 0.00 0.00 0.00 57 1014.9
20260504175836 80 165 7.0 15.0 0.00 0.00 0.00 60 1014.9
20260504175344 80 126 6.0 15.0 0.00 0.00 0.00 58 1014.9
20260504174831 80 162 6.0 12.0 0.00 0.00 0.00 58 1015.0
20260504174335 79 162 6.0 17.0 0.00 0.00 0.00 59 1015.0
20260504173841 79 184 8.0 17.0 0.00 0.00 0.00 60 1015.0
20260504173326 78 184 7.0 16.0 0.00 0.00 0.00 60 1015.4
20260504172853 79 157 10.0 16.0 0.00 0.00 0.00 60 1015.4
20260504172357 78 183 6.0 15.0 0.00 0.00 0.00 60 1015.4
20260504171822 78 155 7.0 15.0 0.00 0.00 0.00 62 1015.4
20260504171330 78 172 6.0 13.0 0.00 0.00 0.00 60 1015.4
20260504170820 78 172 7.0 14.0 0.00 0.00 0.00 62 1015.4
20260504170328 77 151 10.0 14.0 0.00 0.00 0.00 62 1015.6
20260504160339 75 200 8.0 16.0 0.00 0.00 0.00 65 1016.3
20260504150819 74 197 6.0 13.0 0.00 0.00 0.00 67 1016.3
20260504150327 73 185 5.0 13.0 0.00 0.00 0.00 68 1016.1
20260504141332 71 156 5.0 13.0 0.00 0.00 0.00 68 1016.3
20260504140839 71 194 4.0 12.0 0.00 0.00 0.00 68 1016.3
20260504140323 71 118 6.0 12.0 0.00 0.00 0.00 68 1016.1
20260504130332 67 141 5.0 7.0 0.00 0.00 0.00 72 1016.0
20260504110324 61 134 2.0 4.0 0.00 0.00 0.00 79 1015.8
20260504100327 61 134 2.0 3.0 0.00 0.00 0.00 77 1015.9
20260504081831 62 171 0.0 1.0 0.00 0.00 0.00 77 1016.9
20260504081336 62 171 0.0 1.0 0.00 0.00 0.00 77 1016.9
20260504080843 62 171 0.0 1.0 0.00 0.00 0.00 77 1016.9
20260504080348 62 171 0.0 1.0 0.00 0.00 0.00 76 1017.2
20260504070337 63 171 1.0 3.0 0.00 0.00 0.00 73 1018.0
20260504050330 65 182 0.0 3.0 0.00 0.00 0.00 70 1018.6
20260504045837 65 182 1.0 3.0 0.00 0.00 0.00 69 1018.6
20260504045323 65 182 0.0 0.0 0.00 0.00 0.00 69 1018.6
20260504044833 65 182 0.0 0.0 0.00 0.00 0.00 68 1018.8
20260504044320 66 182 0.0 0.0 0.00 0.00 0.00 67 1018.8
20260504043829 66 182 0.0 0.0 0.00 0.00 0.00 67 1018.8
20260504043335 66 182 0.0 0.0 0.00 0.00 0.00 66 1018.8
20260504042823 66 182 0.0 3.0 0.00 0.00 0.00 65 1018.8
20260504042332 67 182 0.0 4.0 0.00 0.00 0.00 65 1018.8
20260504041858 67 182 1.0 4.0 0.00 0.00 0.00 64 1019.0
20260504041323 67 184 2.0 5.0 0.00 0.00 0.00 64 1019.0
20260504040828 67 179 2.0 5.0 0.00 0.00 0.00 63 1019.0
20260504040336 67 177 2.0 4.0 0.00 0.00 0.00 63 1018.9
20260504035842 68 183 2.0 5.0 0.00 0.00 0.00 63 1018.9
20260504035328 68 178 1.0 5.0 0.00 0.00 0.00 62 1018.9
20260504034834 68 186 2.0 5.0 0.00 0.00 0.00 62 1019.0
20260504034323 68 128 3.0 5.0 0.00 0.00 0.00 61 1019.0
20260504033833 68 196 3.0 6.0 0.00 0.00 0.00 61 1019.0
20260504033337 68 143 3.0 6.0 0.00 0.00 0.00 61 1019.0
20260504032822 69 180 3.0 6.0 0.00 0.00 0.00 60 1019.0
20260504032326 69 165 4.0 6.0 0.00 0.00 0.00 60 1019.0
20260504031851 69 172 2.0 7.0 0.00 0.00 0.00 59 1018.8
20260504031333 69 160 3.0 7.0 0.00 0.00 0.00 59 1018.8
20260504030836 69 188 3.0 6.0 0.00 0.00 0.00 58 1018.8
20260504030323 70 160 2.0 10.0 0.00 0.00 0.00 58 1018.5
20260504025828 70 154 4.0 10.0 0.00 0.00 0.00 58 1018.5
20260504025335 70 138 5.0 10.0 0.00 0.00 0.00 57 1018.5
20260504024822 70 135 7.0 10.0 0.00 0.00 0.00 57 1018.6
20260504024329 70 145 7.0 10.0 0.00 0.00 0.00 57 1018.6
20260504023837 70 138 5.0 9.0 0.00 0.00 0.00 57 1018.6
20260504023321 70 138 4.0 9.0 0.00 0.00 0.00 56 1018.6
20260504022828 71 125 4.0 9.0 0.00 0.00 0.00 56 1018.6
20260504022334 71 187 6.0 9.0 0.00 0.00 0.00 55 1018.6